Location: Mary A Oil Field
(38.5606°N, 98.9545°W)
Time: 20:17:04
(UTC+00:00)

Cosmos 724 - Pass Details

Date: 20 January 2020
Orbit: 864 x 931 km, 65.6° (Epoch: 27 February)

Event Time Altitude Azimuth Distance (km) Brightness Sun altitude
Rises 00:37:36 0° 199° (SSW) 3,521 8.0 -10.8°
Reaches altitude 10° 00:40:08 10° 197° (SSW) 2,574 7.2 -11.3°
Maximum altitude 00:46:02 65° 116° (ESE) 974 4.3 -12.4°
Enters shadow 00:51:46 11° 36° (NE) 2,507 6.2 -13.5°
